Weather History for KBNW - December, 2013

Change the Weather History Date:

Sunday, December 22, 2013

  Actual Average (KAMW) Record (KAMW)
Temperature  
Mean Temperature 14 °F 21 °F  
Max Temperature 23 °F 30 °F - ()
Min Temperature 5 °F 13 °F - ()
Degree Days  
Heating Degree Days 51 44  
Month to date heating degree days 899  
Since 1 July heating degree days 2353  
Cooling Degree Days 0 0  
Month to date cooling degree days 0  
Year to date cooling degree days 752  
Moisture  
Dew Point 12 °F    
Average Humidity 85    
Maximum Humidity 100    
Minimum Humidity 73    
Precipitation  
Precipitation 0.00 in 0.03 in - ()
Month to date precipitation 0.88  
Sea Level Pressure  
Sea Level Pressure 30.01 in    
Wind  
Wind Speed 17 mph (NW)    
Max Wind Speed 23 mph    
Max Gust Speed 31 mph    
Visibility 7 miles    
Events Rain , Snow    
T = Trace of Precipitation, MM = Missing Value Source: NWS Daily Summary

Daily Weather History Graph

Daily Weather History Graph

Search for Another Location

Airport or City:

Trip Planner

Search our weather history database for the weather conditions in past years. The results will help you decide how hot, cold, wet, or windy it might be!

Date:

Astronomy

Dec. 22, 2013 Rise Set
Actual Time 7:40 AM CST 4:47 PM CST
Civil Twilight 7:09 AM CST 5:19 PM CST
Nautical Twilight 6:33 AM CST 5:54 PM CST
Astronomical Twilight 5:59 AM CST 6:28 PM CST
Moon 10:05 PM CST (12/22) 10:33 AM CST (12/22)
Length of Visible Light 10h 10m
Length of Day
9h 06m
Waning Gibbous, 76% of the Moon is Illuminated
Dec 22
Waning Gibbous
Dec 25
Last Quarter
Jan 1
New
Jan 7
First Quarter
Jan 15
Full

Hourly Weather History & Observations

Time (CST) Temp. Windchill Dew Point Humidity Pressure Visibility Wind Dir Wind Speed Gust Speed Precip Events Conditions
12:15 AM 23.0 °F - 21.2 °F 93% 29.76 in 2.0 mi North - - N/A Snow Light Snow
12:35 AM 23.0 °F - 21.2 °F 93% 29.77 in 4.0 mi North - - N/A Snow Light Snow
12:55 AM 23.0 °F - 21.2 °F 93% 29.78 in 5.0 mi North - - N/A Rain Light Freezing Rain
1:15 AM 23.0 °F - 21.2 °F 93% 29.78 in 1.5 mi North - - N/A Snow Light Snow
1:35 AM 23.0 °F - 21.2 °F 93% 29.79 in 1.2 mi North - - N/A Snow Light Snow
1:55 AM 23.0 °F - 21.2 °F 93% 29.79 in 0.8 mi North - - N/A Snow Light Snow
2:15 AM 23.0 °F - 21.2 °F 93% 29.80 in 0.5 mi North - - N/A Snow Light Snow
2:35 AM 23.0 °F - 21.2 °F 93% 29.80 in 0.8 mi North - - N/A Snow Light Snow
2:55 AM 23.0 °F - 21.2 °F 93% 29.81 in 1.2 mi North - - N/A Snow Light Snow
3:15 AM 23.0 °F - 21.2 °F 93% 29.81 in 1.0 mi North - - N/A Snow Light Snow
3:35 AM 21.2 °F - 21.2 °F 100% 29.81 in 1.5 mi North - - N/A Snow Light Snow
3:55 AM 21.2 °F 6.0 °F 19.4 °F 93% 29.81 in 1.5 mi North 19.6 mph - N/A Snow Light Snow
4:15 AM 21.2 °F 6.8 °F 19.4 °F 93% 29.82 in 2.0 mi NNW 17.3 mph - N/A Snow Light Snow
4:35 AM 21.2 °F 8.3 °F 19.4 °F 93% 29.83 in 1.8 mi NNW 13.8 mph 25.3 mph N/A Snow Light Snow
4:55 AM 19.4 °F 4.1 °F 17.6 °F 93% 29.83 in 2.0 mi NNW 18.4 mph 26.5 mph N/A Snow Light Snow
5:15 AM 19.4 °F 2.8 °F 17.6 °F 93% 29.84 in 1.8 mi North 21.9 mph - N/A Snow Light Snow
5:35 AM 19.4 °F 3.2 °F 17.6 °F 93% 29.85 in 2.0 mi North 20.7 mph - N/A Snow Light Snow
5:55 AM 17.6 °F 0.9 °F 15.8 °F 93% 29.86 in 1.8 mi NNW 20.7 mph - N/A Snow Light Snow
6:15 AM 17.6 °F 0.9 °F 15.8 °F 93% 29.87 in 1.8 mi North 20.7 mph 28.8 mph N/A Snow Light Snow
6:35 AM 17.6 °F 0.1 °F 14.0 °F 86% 29.88 in 2.5 mi North 23.0 mph 28.8 mph N/A Snow Light Snow
6:55 AM 15.8 °F -0.6 °F 14.0 °F 93% 29.89 in 3.0 mi North 18.4 mph 31.1 mph N/A Snow Light Snow
7:15 AM 15.8 °F -1.5 °F 14.0 °F 93% 29.90 in 5.0 mi NNW 20.7 mph 27.6 mph N/A Snow Light Snow
7:35 AM 15.8 °F -0.6 °F 12.2 °F 86% 29.91 in 3.0 mi North 18.4 mph - N/A Snow Light Snow
7:55 AM 14.0 °F -3.0 °F 12.2 °F 93% 29.92 in 5.0 mi NNW 18.4 mph 24.2 mph N/A Snow Light Snow
8:15 AM 14.0 °F -2.5 °F 12.2 °F 93% 29.94 in 8.0 mi NNW 17.3 mph - N/A Snow Light Snow
8:35 AM 14.0 °F -2.5 °F 12.2 °F 93% 29.95 in 5.0 mi NNW 17.3 mph - N/A Snow Light Snow
8:55 AM 15.8 °F -0.6 °F 12.2 °F 86% 29.96 in 10.0 mi NNW 18.4 mph 25.3 mph N/A Rain Light Freezing Rain
9:15 AM 15.8 °F -0.6 °F 12.2 °F 86% 29.96 in 10.0 mi NNW 18.4 mph - N/A Rain Light Freezing Rain
9:35 AM 15.8 °F -0.2 °F 12.2 °F 86% 29.97 in 10.0 mi NNW 17.3 mph - N/A Rain Light Freezing Rain
9:55 AM 15.8 °F 1.4 °F 12.2 °F 86% 29.98 in 10.0 mi NNW 13.8 mph 20.7 mph N/A Rain Light Freezing Rain
10:15 AM 15.8 °F 2.7 °F 12.2 °F 86% 30.00 in 10.0 mi NW 11.5 mph 17.3 mph N/A Rain Light Freezing Rain
10:35 AM 15.8 °F 0.9 °F 12.2 °F 86% 30.00 in 10.0 mi NW 15.0 mph - N/A   Light Freezing Rain
10:55 AM 14.0 °F -2.0 °F 10.4 °F 86% 30.01 in 10.0 mi NW 16.1 mph - N/A   Light Freezing Rain
11:15 AM 15.8 °F 0.9 °F 10.4 °F 79% 30.01 in 10.0 mi NW 15.0 mph 20.7 mph N/A   Light Freezing Rain
11:35 AM 15.8 °F -1.5 °F 10.4 °F 79% 30.02 in 10.0 mi NW 20.7 mph - N/A   Light Freezing Rain
11:55 AM 15.8 °F -0.6 °F 10.4 °F 79% 30.03 in 7.0 mi NW 18.4 mph - N/A   Overcast
12:15 PM 14.0 °F -2.0 °F 8.6 °F 79% 30.03 in 9.0 mi NW 16.1 mph 24.2 mph N/A Snow Light Snow
12:35 PM 15.8 °F 2.1 °F 10.4 °F 79% 30.03 in 9.0 mi NW 12.7 mph 18.4 mph N/A Snow Light Snow
12:55 PM 15.8 °F 2.1 °F 10.4 °F 79% 30.03 in 10.0 mi NW 12.7 mph - N/A Snow Light Snow
1:15 PM 15.8 °F 2.7 °F 12.2 °F 86% 30.03 in 10.0 mi NW 11.5 mph 19.6 mph N/A Snow Light Snow
1:35 PM 15.8 °F 0.3 °F 12.2 °F 86% 30.03 in 9.0 mi WNW 16.1 mph - N/A Snow Light Snow
1:55 PM 15.8 °F 2.1 °F 12.2 °F 86% 30.04 in - WNW 12.7 mph 20.7 mph N/A Snow Light Snow
2:15 PM 15.8 °F - 12.2 °F 86% 30.04 in 9.0 mi North - - N/A Snow Light Snow
2:35 PM 15.8 °F - 12.2 °F 86% 30.05 in 9.0 mi North - - N/A Snow Light Snow
2:55 PM - - - N/A% 30.06 in - West 11.5 mph - N/A   Unknown
3:15 PM 17.6 °F 5.7 °F 12.2 °F 79% 30.07 in 10.0 mi West 10.4 mph 16.1 mph N/A Rain Light Freezing Rain
3:35 PM 17.6 °F 5.7 °F 12.2 °F 79% 30.08 in 10.0 mi West 10.4 mph 20.7 mph N/A Rain Light Freezing Rain
3:55 PM 17.6 °F 3.2 °F 12.2 °F 79% 30.09 in 10.0 mi NW 15.0 mph 21.9 mph N/A   Light Freezing Rain
4:15 PM 17.6 °F 3.7 °F 12.2 °F 79% 30.10 in 10.0 mi NW 13.8 mph - N/A   Light Freezing Rain
4:35 PM 17.6 °F 3.7 °F 12.2 °F 79% 30.11 in 10.0 mi NW 13.8 mph 19.6 mph N/A Rain Light Freezing Rain
4:55 PM 15.8 °F 0.3 °F 10.4 °F 79% 30.11 in 10.0 mi NW 16.1 mph - N/A Rain Light Freezing Rain
5:15 PM 15.8 °F -0.2 °F 10.4 °F 79% 30.12 in 10.0 mi NW 17.3 mph - N/A Rain Light Freezing Rain
5:35 PM 15.8 °F -0.2 °F 10.4 °F 79% 30.13 in 10.0 mi NW 17.3 mph 24.2 mph N/A   Light Freezing Rain
5:55 PM 15.8 °F 0.3 °F 10.4 °F 79% 30.14 in 10.0 mi NW 16.1 mph 26.5 mph N/A Snow Light Snow
6:15 PM 15.8 °F -0.6 °F 8.6 °F 73% 30.15 in 10.0 mi NW 18.4 mph - N/A   Light Freezing Rain
6:35 PM 14.0 °F -1.4 °F 8.6 °F 79% 30.16 in 10.0 mi NW 15.0 mph 24.2 mph N/A   Light Freezing Rain
6:55 PM 14.0 °F -3.0 °F 8.6 °F 79% 30.17 in 10.0 mi NW 18.4 mph 25.3 mph N/A   Light Freezing Rain
7:15 PM 12.2 °F -4.3 °F 6.8 °F 79% 30.18 in 10.0 mi NW 16.1 mph - N/A   Overcast
7:35 PM 10.4 °F -7.2 °F 6.8 °F 85% 30.18 in 10.0 mi NW 17.3 mph 25.3 mph N/A   Mostly Cloudy
7:55 PM 10.4 °F -5.4 °F 5.0 °F 79% 30.18 in 10.0 mi NW 13.8 mph - N/A   Mostly Cloudy
8:15 PM 8.6 °F -8.3 °F 5.0 °F 85% 30.19 in 10.0 mi NW 15.0 mph 23.0 mph N/A   Partly Cloudy
8:35 PM 8.6 °F -7.0 °F 3.2 °F 79% 30.20 in 10.0 mi NW 12.7 mph 20.7 mph N/A   Light Freezing Rain
8:55 PM 8.6 °F -8.3 °F 3.2 °F 79% 30.21 in 10.0 mi NW 15.0 mph 20.7 mph N/A   Light Freezing Rain
9:15 PM 6.8 °F -10.7 °F 3.2 °F 85% 30.23 in 10.0 mi WNW 15.0 mph 21.9 mph N/A   Light Freezing Rain
9:35 PM 6.8 °F -9.3 °F 1.4 °F 79% 30.23 in 10.0 mi NW 12.7 mph 19.6 mph N/A   Light Freezing Rain
9:55 PM 6.8 °F -9.3 °F 1.4 °F 79% 30.24 in 10.0 mi NW 12.7 mph 18.4 mph N/A   Light Freezing Rain
10:15 PM 5.0 °F -12.3 °F 1.4 °F 85% 30.25 in 10.0 mi WNW 13.8 mph 20.7 mph N/A   Light Freezing Rain
10:35 PM 5.0 °F -13.6 °F 1.4 °F 85% 30.26 in 10.0 mi NW 16.1 mph 23.0 mph N/A   Light Freezing Rain
10:55 PM 5.0 °F -12.3 °F -0.4 °F 78% 30.27 in 10.0 mi NW 13.8 mph 20.7 mph N/A   Light Freezing Rain
11:15 PM 5.0 °F -11.6 °F -0.4 °F 78% 30.27 in 10.0 mi NW 12.7 mph - N/A   Light Freezing Rain
11:35 PM 5.0 °F -13.6 °F -0.4 °F 78% 30.27 in 10.0 mi NW 16.1 mph 23.0 mph N/A   Light Freezing Rain
11:55 PM 5.0 °F -13.6 °F -0.4 °F 78% 30.28 in 10.0 mi NW 16.1 mph 25.3 mph N/A   Clear